Wind_Speed
19 19 20 19 19 18 19 24 25 26 30 30 26 20 16 15 16 16 15 13 12 10 9 9 9 9 9 9 10 11 12 12 12 10 8 7 7 7 7 6 6 6 6 6 6 6 6 6 4 3 2 2 2 2 2 2 2 3 4 4 5 5 5 4 4 5 6 5 5 6 6 6 6 8 7 7 5 3 5 5 4 4 5 5 5
18 19 19 20 21 22 23 26 27 29 30 29 24 19 14 14 15 16 16 15 12 11 11 10 10 10 11 12 12 13 15 15 13 11 10 9 9 9 8 7 7 7 7 6 6 6 6 5 4 3 3 3 2 2 2 2 3 3 4 5 5 5 5 5 4 6 7 6 6 7 8 6 7 9 8 7 6 5 6 6 5 5 5 5 5
19 20 20 23 26 27 27 28 28 28 27 25 22 17 14 14 16 16 14 14 13 12 12 11 11 12 13 14 14 15 17 16 13 12 11 10 10 10 9 8 7 7 7 6 6 5 5 5 4 3 3 2 2 2 3 3 3 3 4 4 5 5 5 5 5 6 8 7 7 9 9 8 8 8 7 6 5 4 5 5 5 5 5 4 5
20 21 24 29 31 31 29 28 27 25 25 23 20 18 16 16 18 17 14 14 14 13 12 12 13 14 14 15 15 16 18 15 13 14 13 12 12 11 10 8 7 7 7 6 6 5 4 4 4 3 2 2 2 2 2 3 3 4 4 4 5 6 6 6 5 6 8 8 8 8 9 9 8 8 8 7 5 4 4 4 5 5 5 5 5
22 26 30 32 32 31 30 30 27 25 25 22 20 18 15 13 14 15 14 14 14 12 11 13 15 15 14 14 14 15 16 16 16 16 15 14 13 12 11 9 7 6 6 6 5 5 4 3 3 3 3 3 3 2 3 3 3 4 5 5 6 6 7 7 7 7 8 9 9 9 9 9 9 10 10 9 7 6 6 6 5 5 5 6 6
26 29 33 33 31 29 30 31 29 27 26 24 24 22 17 14 14 13 14 14 15 13 12 13 13 12 12 13 14 14 16 19 19 17 16 14 13 12 11 9 7 5 5 5 4 4 4 3 3 3 4 5 5 5 6 5 5 5 5 6 7 8 8 8 8 8 9 9 9 10 10 10 10 10 10 10 10 9 8 8 7 6 7 7 7
29 30 32 32 28 27 30 30 28 29 27 27 27 24 20 18 16 15 14 14 14 13 13 13 11 9 10 12 13 15 17 19 19 17 15 13 12 11 9 8 6 5 4 3 3 3 4 4 4 4 4 5 6 7 8 9 9 8 7 8 9 9 9 9 9 9 9 9 10 10 10 10 11 10 10 10 11 11 10 10 9 9 9 9 8
30 30 31 30 26 28 30 30 30 29 26 26 26 23 19 16 15 14 13 11 10 11 12 12 10 10 12 12 13 13 13 15 16 15 13 12 10 9 8 7 6 5 4 3 3 4 5 5 6 6 6 6 7 8 9 10 11 11 10 11 11 10 10 11 10 10 10 10 10 11 11 11 11 10 10 11 12 12 12 12 11 11 10 10 9
29 29 30 28 26 27 29 30 30 26 20 20 21 18 16 14 13 12 11 10 9 8 8 9 10 12 13 13 13 12 12 14 15 14 11 10 9 9 8 7 5 3 3 4 5 5 6 6 7 7 7 8 9 10 10 11 11 12 12 12 13 12 12 12 11 11 11 11 11 12 12 11 11 11 11 12 12 12 12 12 11 11 11 10 9
28 28 29 27 27 27 29 30 28 22 16 13 12 12 11 11 11 10 10 8 7 6 4 4 6 8 11 12 11 9 10 12 13 11 9 8 8 9 8 7 5 3 4 5 5 6 7 8 9 9 8 8 9 10 11 12 13 12 12 12 13 14 14 13 13 12 12 12 12 12 12 12 11 11 12 12 12 11 11 11 11 10 10 10 11
27 27 28 26 26 27 28 27 23 21 21 19 18 17 14 10 9 8 8 7 7 5 3 2 5 6 6 7 8 7 8 9 10 9 8 7 8 8 8 7 5 4 5 5 5 6 7 7 8 8 8 7 8 8 9 11 12 12 12 12 12 13 14 14 14 13 12 12 12 12 12 11 11 11 12 13 12 11 11 11 11 10 10 10 11
27 27 27 26 25 26 26 24 20 21 22 22 22 19 13 10 11 10 8 8 7 6 4 5 7 8 5 6 8 6 6 6 8 8 7 6 6 7 8 7 6 6 5 4 4 5 6 6 6 6 6 6 6 5 6 7 8 9 10 10 11 11 13 14 14 14 13 13 13 12 12 12 12 13 13 13 13 11 10 10 11 10 9 10 11
27 29 29 27 25 24 25 24 21 20 20 18 16 13 9 7 10 10 7 6 6 5 6 7 7 7 6 7 9 9 8 8 9 9 8 7 6 7 8 8 8 8 6 4 4 4 5 6 6 6 5 5 5 5 4 4 5 6 7 8 8 10 11 12 14 14 14 14 14 14 14 14 13 13 13 13 11 9 9 10 11 10 9 10 11
26 29 28 26 24 22 22 20 17 18 19 17 14 14 13 11 10 7 5 4 5 5 4 5 5 5 6 7 9 11 13 13 12 11 10 9 7 7 8 9 9 8 6 5 4 5 5 6 6 5 5 6 6 5 5 4 4 5 5 5 6 7 9 11 13 14 15 16 16 16 16 15 14 14 13 13 11 9 10 11 11 10 9 9 11
26 27 26 24 23 20 18 18 17 19 19 16 13 14 15 13 11 8 6 5 5 4 3 3 4 4 5 6 9 11 14 14 13 12 11 10 8 7 8 9 9 9 8 6 5 5 5 6 5 5 5 6 6 6 5 5 5 6 6 6 6 6 8 10 11 13 15 16 17 17 17 16 16 15 14 13 10 10 11 11 9 7 7 8 9
24 26 25 25 23 20 18 18 19 18 17 15 14 15 13 11 10 9 10 8 7 4 4 4 4 4 5 6 8 11 12 13 12 11 10 10 9 8 8 9 10 10 10 8 6 6 6 6 6 6 5 5 6 6 5 5 6 6 7 7 7 7 8 9 10 12 14 15 15 15 15 15 14 13 12 11 10 9 9 8 6 6 7 9 9
23 25 27 27 25 20 19 18 17 16 15 16 17 16 13 9 8 7 8 8 7 5 4 4 5 6 6 6 7 9 11 13 13 11 10 10 10 10 10 10 11 12 12 10 8 7 7 7 6 6 5 5 6 5 6 6 6 7 7 8 8 8 8 9 10 11 12 12 12 12 12 11 11 10 10 9 9 8 8 7 6 7 8 8 8
22 23 26 28 25 19 17 17 16 14 15 17 17 16 14 10 9 10 10 7 6 6 5 4 6 7 8 9 9 9 9 12 14 13 11 10 10 10 12 12 12 13 13 11 10 9 8 8 7 7 6 6 6 6 6 7 7 7 7 8 8 9 9 9 10 10 10 10 10 10 10 9 9 9 8 8 7 7 7 7 7 7 7 8 8
23 21 20 21 20 16 15 16 16 15 16 17 17 15 14 12 12 12 11 7 6 8 8 6 7 8 10 12 11 9 9 10 12 14 14 14 13 12 12 12 12 13 13 12 11 10 9 9 9 8 7 7 7 7 7 7 7 8 8 8 8 8 9 10 10 10 10 9 9 9 8 7 7 7 7 7 7 7 6 6 7 7 8 9 9
25 22 17 16 16 15 15 16 17 19 19 20 20 18 15 14 12 10 9 8 8 8 9 9 9 9 11 12 12 10 9 9 11 14 16 17 17 15 13 13 12 13 14 14 13 11 11 11 10 9 8 7 8 8 8 8 8 8 9 9 9 9 9 9 10 10 9 9 9 8 7 7 7 7 7 7 7 6 6 6 7 8 9 10 11
24 24 21 19 18 18 19 20 21 21 20 19 17 15 13 13 12 11 11 12 12 10 11 12 13 13 13 14 15 16 16 15 14 14 16 18 18 17 15 13 13 14 15 16 14 13 13 12 12 11 9 9 9 8 9 9 9 9 10 10 10 9 9 9 10 10 10 9 9 9 8 9 9 9 9 8 7 7 8 8 9 9 11 12 12
23 23 23 23 21 21 24 25 25 23 21 18 14 13 13 14 14 15 16 17 15 13 13 14 15 15 16 17 18 20 21 20 17 15 15 16 16 15 14 14 15 17 18 17 16 15 14 14 14 13 11 10 10 10 10 10 10 10 10 10 10 10 10 10 10 11 11 11 10 10 10 10 11 11 11 10 9 10 11 11 11 11 12 13 14
22 23 26 26 24 25 27 28 28 26 24 23 22 22 22 20 17 18 19 18 16 14 15 17 17 16 17 18 17 18 19 19 19 18 17 15 15 16 16 18 20 21 21 19 18 16 15 15 16 15 13 12 11 11 11 11 11 10 10 9 9 9 10 10 10 11 11 11 10 10 10 10 10 10 10 11 11 13 14 14 13 13 13 14 16
23 25 28 28 26 26 27 28 29 29 29 28 27 25 24 21 20 20 19 19 18 18 18 19 19 19 19 20 18 17 16 14 15 16 16 16 16 18 20 22 22 22 22 21 19 18 17 17 18 17 16 14 12 12 12 12 12 11 10 10 9 9 9 10 10 11 11 11 10 9 9 9 9 9 10 11 12 14 15 16 15 15 15 15 17
23 23 25 26 27 28 28 28 29 30 30 29 27 26 24 23 22 20 20 20 19 18 17 16 17 17 18 19 18 16 15 14 13 13 15 16 17 18 21 22 22 22 22 22 21 20 19 18 19 19 17 15 14 13 13 13 13 12 10 9 8 8 9 9 10 10 11 10 9 9 9 9 9 10 11 12 13 14 16 17 17 18 18 17 17
24 23 23 23 24 26 27 26 26 27 29 28 26 25 24 23 22 21 21 20 18 15 14 13 15 17 16 16 15 15 16 17 16 16 17 18 18 19 20 20 21 22 23 23 22 21 20 19 19 18 17 16 15 14 14 14 13 11 9 9 9 9 10 11 11 12 12 12 11 11 11 11 12 13 13 13 14 15 16 17 19 20 21 21 21
25 25 23 19 19 21 22 22 22 22 24 25 24 24 23 21 21 20 18 15 14 13 11 10 11 13 11 10 10 11 13 14 14 16 18 19 19 18 18 19 20 22 23 22 22 21 21 20 19 19 17 16 15 15 14 13 13 12 12 12 13 13 14 15 15 15 15 15 15 15 15 16 16 17 17 17 17 17 17 17 19 20 22 24 24
23 24 23 21 21 21 20 19 17 15 16 19 20 21 22 21 20 18 17 16 14 12 10 10 12 14 12 10 10 9 12 15 16 16 16 16 16 16 17 18 21 22 22 22 22 22 22 22 22 21 20 18 16 14 14 13 14 15 16 17 17 17 18 19 20 20 20 19 18 18 19 20 20 21 22 21 21 20 20 19 20 21 23 25 26
23 24 25 26 26 25 23 21 20 20 21 21 20 20 21 21 19 18 19 18 14 13 14 16 17 16 13 12 11 11 13 16 18 17 15 14 14 15 17 20 21 22 22 23 23 23 24 24 24 24 23 21 20 18 18 18 18 19 20 21 21 21 22 23 24 24 23 22 21 21 22 23 23 24 24 25 24 24 24 23 22 22 23 25 26
26 27 27 27 26 25 24 24 24 26 26 25 24 24 22 21 20 21 21 19 18 19 20 19 16 15 15 16 18 18 16 18 21 19 16 14 15 16 19 21 22 22 22 22 23 23 23 24 24 24 24 23 23 22 22 22 22 23 24 24 25 26 26 27 27 27 27 25 24 24 24 24 25 26 27 27 27 27 27 26 25 25 25 27 27
26 27 27 26 25 25 25 25 25 25 25 25 26 25 23 23 23 24 24 23 23 24 23 20 20 21 21 22 24 22 19 19 19 18 17 18 18 18 19 20 21 22 22 23 23 22 22 22 22 22 23 23 24 24 24 24 24 25 25 26 27 27 28 29 29 29 29 28 27 27 26 25 25 27 28 28 28 29 29 29 28 27 28 29 30
24 25 25 25 25 25 26 26 26 26 26 26 26 25 25 24 24 25 25 25 26 25 24 24 25 25 23 22 22 22 20 19 18 19 20 20 21 20 19 20 21 22 23 24 24 24 23 22 22 22 23 24 25 25 25 26 26 26 27 27 28 28 29 28 27 26 27 29 30 29 29 28 27 27 28 28 29 29 30 31 31 30 30 31 32
24 25 25 26 27 27 27 27 27 27 27 27 27 28 27 28 28 28 27 27 26 26 25 24 23 22 22 21 22 22 22 23 22 22 22 22 22 21 20 21 22 23 24 25 25 26 26 25 25 25 25 26 26 27 27 27 28 28 28 29 30 30 31 30 29 29 31 32 32 32 31 31 30 30 30 31 31 30 30 31 32 32 32 33 35
24 26 27 28 28 29 30 29 28 27 27 28 29 30 31 31 30 30 29 28 27 26 26 25 25 25 24 24 23 24 25 25 25 25 25 26 27 26 24 25 26 27 27 28 28 28 29 28 27 27 27 27 28 29 28 29 30 30 30 31 32 33 34 34 34 34 35 34 33 34 35 35 34 35 36 36 36 35 34 34 34 35 35 35 37
26 28 29 29 30 31 31 30 28 28 29 31 31 32 33 33 32 32 31 31 30 30 29 29 29 29 29 29 29 29 29 29 29 29 30 30 31 30 29 29 30 30 31 31 32 32 32 31 31 30 30 30 30 31 31 32 33 33 34 34 35 36 37 38 38 38 37 37 37 38 40 40 38 38 39 40 40 38 38 39 40 39 38 37 38
28 29 30 31 31 31 31 30 30 31 32 33 34 35 36 36 35 35 34 34 34 34 34 34 34 34 34 34 34 33 33 33 33 34 34 34 35 35 34 33 34 35 35 36 37 37 37 36 35 34 33 33 33 34 34 35 35 36 37 38 40 42 42 41 41 41 41 41 40 41 42 43 43 42 42 42 41 39 40 42 44 44 41 39 38
30 31 32 33 33 33 33 32 32 33 34 35 37 39 40 40 39 37 37 37 38 38 37 38 38 38 37 37 38 37 37 37 37 37 37 37 38 38 38 37 38 39 40 41 41 41 41 41 39 38 38 37 37 37 37 36 37 38 40 43 46 47 47 45 44 44 44 43 43 43 44 45 45 45 44 43 42 43 45 46 46 46 44 41 40
33 33 34 34 35 35 36 36 36 36 35 35 37 38 39 40 41 40 41 42 42 41 41 40 41 41 41 41 41 41 41 41 40 40 39 40 40 41 42 43 43 44 44 45 45 45 44 44 43 43 42 40 39 39 38 38 39 42 44 46 48 48 49 48 48 47 47 46 45 45 46 46 47 47 48 47 47 46 46 46 46 45 43 43 44
35 36 37 37 38 38 39 39 39 40 40 40 40 39 38 38 38 40 41 43 44 44 43 43 43 43 43 44 45 45 45 44 43 43 42 42 43 43 44 45 46 46 46 46 47 48 47 46 45 45 43 41 39 40 41 42 44 47 48 48 49 49 49 49 49 49 49 49 48 48 48 48 48 48 49 49 48 47 46 45 45 43 42 42 44
40 40 40 41 41 42 42 42 43 43 43 43 43 43 42 40 39 38 38 38 39 40 42 43 44 45 46 46 46 46 46 46 46 46 46 47 47 47 48 48 48 47 47 47 48 49 51 50 49 48 47 45 44 45 47 48 50 51 52 52 51 51 51 51 51 51 52 52 52 52 51 50 50 51 51 50 48 47 45 43 41 40 41 42 41
39 41 43 44 45 45 46 46 46 46 46 46 46 47 46 45 44 42 40 38 37 37 38 40 42 44 44 44 44 44 45 45 46 48 49 49 50 50 49 49 48 48 50 50 50 51 53 54 53 53 53 53 53 52 53 54 55 55 55 54 53 53 52 53 53 54 55 55 54 53 52 52 52 52 51 50 48 44 42 42 41 41 44 45 43
35 36 38 41 43 45 46 47 48 48 48 48 49 49 49 49 49 48 48 46 45 43 42 42 43 43 42 42 42 42 43 44 46 48 48 48 49 50 50 49 49 49 51 52 53 54 55 56 57 57 58 59 60 59 58 58 58 58 56 55 54 54 55 55 56 57 56 55 53 53 53 53 52 49 48 47 45 43 42 43 43 43 44 44 42
35 36 36 37 39 40 42 44 46 47 47 48 48 49 49 50 50 51 51 52 52 52 51 50 50 49 49 48 48 48 48 50 51 53 53 52 53 53 54 54 55 55 56 57 58 59 60 60 61 62 62 63 64 63 61 60 59 59 58 57 57 57 57 58 57 57 55 53 53 52 50 48 46 44 43 42 41 42 43 44 44 44 44 42 41
36 37 38 38 39 39 40 42 43 44 45 46 47 48 48 49 49 50 50 51 51 52 52 52 52 52 52 51 52 52 53 54 56 58 58 58 59 58 59 59 60 60 61 62 62 63 63 63 64 64 65 65 65 65 64 63 61 61 60 60 59 58 58 58 57 56 54 53 50 46 44 45 45 43 43 44 45 47 48 48 47 47 46 45 44
36 37 38 39 40 41 42 43 43 44 45 45 46 47 48 48 49 50 50 51 51 51 51 51 51 51 51 51 51 52 53 54 56 57 59 60 61 62 63 63 63 64 64 65 65 65 66 66 66 66 66 66 65 65 65 64 63 61 61 61 60 59 58 56 55 55 53 50 46 43 44 48 49 48 48 50 52 53 52 49 49 48 48 47 46
38 39 40 40 41 42 43 44 45 45 46 46 47 48 48 49 50 50 51 52 52 52 52 52 52 52 52 53 53 54 54 55 56 57 58 59 60 62 63 64 65 66 66 66 67 68 68 69 68 68 67 67 66 65 65 65 64 63 62 62 61 60 58 55 51 51 50 47 46 46 48 51 52 52 53 54 55 54 51 49 48 47 47 46 45
41 42 42 43 43 44 45 46 47 47 47 47 48 49 49 50 51 52 52 53 53 53 54 54 55 55 56 57 57 58 58 59 59 60 60 61 62 63 63 64 66 67 67 68 69 70 70 71 71 70 70 69 68 67 66 66 66 65 65 64 63 62 60 55 51 49 47 46 45 45 47 52 54 53 52 53 52 51 48 46 46 46 46 47 47
44 44 44 45 46 47 48 49 49 48 48 49 50 50 51 52 53 53 53 54 54 55 56 57 59 60 60 61 61 62 62 62 62 63 63 64 64 65 66 66 67 68 69 70 71 71 72 72 72 72 72 71 70 69 68 66 66 66 65 64 64 63 61 58 54 51 47 47 47 44 46 51 53 50 49 48 46 44 43 41 42 43 44 45 47
46 47 47 48 49 50 51 52 52 51 52 52 52 53 53 54 55 55 56 57 58 59 60 61 62 62 63 63 63 63 64 64 64 65 66 67 67 68 68 68 69 69 70 71 71 71 72 72 71 71 71 70 68 67 66 63 62 63 63 60 59 59 59 57 55 51 46 46 47 47 49 53 52 49 46 46 45 45 45 44 44 44 45 45 46
46 47 48 48 49 50 51 52 52 52 53 54 54 55 56 57 58 58 59 60 61 62 62 62 63 63 63 63 64 64 65 65 65 66 66 67 68 69 69 69 68 68 68 68 68 68 67 67 67 66 65 65 63 61 61 61 61 62 62 58 55 55 54 52 50 45 42 41 43 47 51 53 51 49 48 48 48 49 50 49 47 44 44 44 44
48 48 48 49 50 51 52 52 53 53 54 54 55 56 57 57 58 58 59 60 61 61 61 62 62 62 62 62 62 62 63 63 63 63 62 62 62 63 64 64 64 63 63 62 62 61 60 60 60 60 59 59 58 57 57 58 59 59 58 57 55 53 51 49 44 39 38 40 45 50 54 54 53 53 54 54 53 50 47 45 43 41 41 41 41
Wind_Direction
253 259 263 264 269 268 263 263 262 260 257 257 258 255 251 240 234 238 244 253 261 261 264 258 255 260 259 256 255 260 273 284 288 293 298 300 299 298 296 296 297 298 298 302 309 309 311 313 316 318 311 302 290 290 308 306 301 299 303 318 327 318 300 291 270 264 267 257 259 258 254 258 257 260 260 252 255 265 262 256 254 254 244 240 239
254 257 259 262 262 257 252 253 253 253 254 258 261 261 257 240 239 248 246 251 263 265 267 267 263 263 264 267 268 270 276 284 290 294 296 295 293 290 287 290 292 297 302 304 306 305 308 314 323 335 332 322 313 307 302 294 293 297 303 313 323 319 298 289 278 279 282 268 260 264 263 255 244 253 262 256 253 264 271 270 270 263 250 245 242
256 253 254 256 253 249 245 243 245 249 253 258 262 265 266 256 257 264 253 250 260 264 267 267 265 262 261 263 266 271 277 284 289 288 287 285 283 283 284 288 291 293 296 298 299 297 300 310 318 329 333 333 340 322 302 296 294 292 298 304 310 306 292 286 280 281 285 273 255 259 268 263 248 252 260 259 264 277 281 281 276 268 262 255 241
258 256 253 251 250 252 252 249 247 251 259 262 265 270 276 273 270 269 259 252 254 258 265 268 268 266 264 265 268 273 274 275 277 275 276 279 282 286 291 293 296 297 299 300 300 298 298 299 299 304 313 323 334 325 306 301 304 302 298 293 293 294 292 291 286 277 281 280 271 268 273 272 265 268 272 272 275 278 280 277 269 268 264 247 226
257 255 253 252 257 263 264 262 256 254 262 266 264 267 275 272 265 264 257 246 243 250 263 267 270 274 276 277 280 279 270 264 268 270 273 278 284 290 295 298 302 306 312 317 314 311 307 298 295 293 287 286 285 287 294 303 316 316 310 302 293 290 290 290 286 278 278 281 280 277 275 273 271 271 274 276 272 273 278 272 262 261 254 237 228
256 254 255 260 266 268 268 267 262 256 258 260 258 257 262 260 255 257 253 243 238 241 251 261 270 281 286 284 283 275 265 265 268 269 270 276 283 288 290 293 296 297 304 319 328 330 331 327 315 303 292 287 280 274 275 283 297 308 313 312 301 294 290 287 284 278 276 275 274 272 271 271 268 266 267 268 268 271 273 270 266 262 258 252 247
258 255 257 264 269 270 270 267 258 252 254 258 256 254 256 260 261 260 257 252 248 245 248 257 265 274 275 272 270 265 262 266 266 265 268 273 277 279 279 281 279 272 274 302 340 344 343 340 329 317 305 297 288 281 276 274 277 284 298 304 300 297 292 285 284 279 273 268 262 263 267 268 266 264 264 262 264 268 268 269 269 266 263 259 252
256 256 259 267 272 272 270 268 260 253 255 258 256 255 258 262 265 262 262 266 270 269 264 262 260 258 254 253 258 261 261 262 261 261 264 268 271 271 269 268 264 266 279 310 340 338 331 323 315 310 304 298 293 288 282 277 273 274 283 291 291 294 291 286 284 280 273 266 259 258 261 262 260 260 260 258 257 258 260 265 267 266 264 258 253
258 259 262 270 276 272 267 270 264 253 256 258 252 258 264 262 261 256 258 269 275 281 279 270 265 260 258 261 266 267 263 259 256 256 256 260 264 265 263 259 256 271 301 319 325 318 309 300 293 290 288 287 286 284 283 281 277 274 276 281 285 287 287 284 282 278 273 267 262 259 259 258 256 255 256 255 253 253 258 262 262 263 260 254 255
263 266 269 272 275 273 271 269 259 245 251 255 250 273 282 268 258 247 245 255 258 259 268 278 278 272 273 274 269 267 271 267 260 258 259 260 262 262 259 256 259 279 300 306 307 304 299 290 282 277 273 271 271 273 276 277 277 275 274 276 279 280 280 279 276 273 270 265 262 261 259 257 252 249 250 249 250 254 259 259 254 254 253 250 256
265 268 271 269 267 270 270 265 254 248 256 259 265 285 291 266 244 236 237 243 240 228 219 311 324 308 288 254 240 263 285 277 265 262 263 260 261 261 260 262 269 282 287 286 296 309 311 304 294 286 279 272 266 265 267 270 273 275 276 276 276 275 274 273 271 268 265 262 262 260 256 252 247 243 243 245 250 255 256 252 247 247 249 250 257
262 262 264 261 258 258 258 256 257 259 260 266 275 282 283 258 239 240 245 237 228 221 241 310 325 321 296 219 224 267 289 269 256 256 256 252 256 264 271 276 277 279 277 275 294 320 328 332 327 313 296 283 275 271 268 267 268 271 275 279 279 276 272 269 267 264 258 256 256 253 248 245 244 243 243 246 250 251 249 247 246 247 251 256 262
259 260 261 257 249 246 249 254 261 261 261 274 279 268 268 279 263 251 246 233 232 250 285 307 316 317 297 256 253 267 271 265 254 245 243 243 251 268 278 280 281 282 273 265 288 314 330 342 344 330 308 289 280 276 273 271 271 269 270 274 275 273 270 265 262 256 252 250 248 246 244 242 241 240 241 242 242 243 241 240 243 249 256 262 266
259 260 262 257 247 243 248 256 261 259 261 272 274 254 257 290 292 262 247 247 249 263 287 301 305 306 291 272 266 260 260 265 256 240 236 239 245 265 279 281 284 284 268 257 279 305 323 336 338 327 308 291 282 278 275 274 277 278 276 274 270 266 264 260 256 253 249 247 245 243 243 241 237 235 236 237 233 232 234 236 239 247 257 264 266
260 258 258 256 251 246 244 251 256 256 259 266 271 261 261 283 288 252 230 233 240 252 267 282 288 291 286 274 266 259 258 259 254 246 242 242 247 258 274 283 285 280 264 256 272 291 308 321 323 319 305 291 286 281 278 273 273 280 283 283 277 265 260 255 250 247 243 241 240 239 239 237 234 231 233 235 229 226 233 238 238 241 253 258 258
261 256 253 250 247 243 237 242 251 256 263 269 274 271 269 284 283 244 220 223 237 247 251 262 269 276 287 284 273 267 260 253 249 249 250 253 260 262 268 279 282 276 265 260 270 281 295 307 308 307 302 295 291 287 285 280 275 275 277 280 278 269 261 253 243 238 236 236 235 234 235 235 233 232 232 232 227 226 233 238 234 233 242 248 247
261 257 255 245 237 233 230 238 248 256 267 274 279 281 279 295 298 250 222 224 232 235 237 253 264 269 278 291 297 288 268 251 242 244 253 262 268 267 267 274 280 279 270 265 271 278 287 295 297 299 298 295 296 296 295 292 285 278 275 275 274 270 265 257 247 240 234 229 227 227 229 230 230 230 232 231 228 228 230 231 232 235 245 250 250
259 259 256 239 226 222 226 236 243 251 263 267 274 279 272 280 288 257 242 240 232 232 238 244 256 263 265 276 294 297 279 260 248 248 256 265 271 269 268 272 278 279 273 268 271 277 286 291 292 294 295 294 298 302 301 297 290 281 275 272 269 269 268 264 259 252 244 233 225 222 223 224 227 230 233 234 232 232 232 233 238 240 247 253 256
254 257 249 224 215 221 229 233 238 248 257 257 263 268 262 270 283 264 253 264 258 246 246 247 254 262 264 270 279 286 288 276 261 257 260 265 271 273 270 269 273 274 271 268 271 277 284 287 288 290 292 295 300 303 301 295 287 278 271 266 263 263 265 265 264 262 258 250 240 233 231 229 233 239 243 245 245 247 248 248 248 246 247 251 253
244 245 240 223 222 233 234 235 238 244 251 257 265 268 265 272 280 261 247 265 274 259 251 256 265 271 274 276 275 278 291 294 277 262 260 264 268 269 269 265 262 263 264 266 269 276 283 286 287 286 287 291 294 296 295 288 279 271 263 259 257 257 259 261 265 266 265 264 261 259 256 253 256 262 267 270 272 274 270 261 255 253 253 254 254
242 243 243 239 239 243 244 244 244 246 255 266 270 265 263 270 270 258 258 277 287 278 264 263 268 271 272 273 273 275 283 291 287 270 264 267 265 262 264 262 257 257 259 262 267 273 279 283 284 284 283 286 288 288 287 280 273 266 258 254 251 252 254 258 262 265 266 270 274 278 282 285 287 289 291 290 286 281 275 267 260 259 259 258 259
247 246 244 242 241 243 247 249 251 255 261 265 263 257 263 270 270 270 279 291 297 291 280 273 271 272 272 271 270 270 274 279 280 273 269 268 259 253 256 261 262 262 259 261 265 268 274 279 281 281 280 281 283 283 280 274 268 263 257 253 251 251 255 258 261 265 269 274 279 285 290 295 298 301 301 296 288 283 280 275 268 265 265 264 263
247 244 242 243 243 242 244 249 255 260 262 260 260 264 269 273 277 283 291 298 298 293 288 280 275 274 272 271 271 270 271 271 268 266 265 263 256 253 258 264 267 265 260 259 263 265 269 275 277 277 275 276 278 278 277 272 265 261 258 256 257 258 260 263 267 271 275 279 283 287 291 296 301 303 300 293 287 285 283 279 273 269 269 271 270
247 247 245 244 242 240 242 249 255 258 260 260 265 271 277 282 288 290 292 292 290 289 290 281 271 270 271 271 271 271 269 265 259 256 254 252 254 257 262 267 267 263 257 255 258 260 263 267 270 271 270 269 271 275 275 272 266 264 264 264 266 268 271 274 278 279 281 283 287 291 297 304 309 308 304 295 288 286 286 284 282 279 274 274 276
243 243 242 242 242 242 246 252 255 259 262 266 273 279 282 284 287 287 286 288 289 291 293 279 264 271 277 271 266 265 263 259 253 246 242 243 248 252 257 261 261 257 251 249 251 254 258 262 265 267 267 267 269 273 274 273 270 268 269 273 280 287 292 292 291 288 286 286 290 296 303 311 312 309 307 298 289 289 289 288 289 288 283 278 275
242 241 243 247 247 247 252 256 260 266 270 271 274 278 279 279 283 285 286 289 291 291 294 280 263 275 283 269 261 263 259 253 249 248 248 249 249 248 249 253 253 250 247 246 248 251 254 258 262 264 264 266 269 272 272 271 268 266 271 280 291 302 306 304 300 298 297 299 302 306 309 309 305 301 302 299 293 290 288 283 282 283 283 282 278
240 240 240 246 252 253 255 261 266 269 269 268 270 274 279 283 287 290 289 293 297 293 291 282 272 285 287 254 241 254 256 256 260 261 259 257 254 250 248 249 250 248 246 247 251 253 255 257 259 260 261 264 268 269 267 264 262 266 276 285 293 301 303 302 300 299 301 305 309 310 307 305 303 301 302 301 297 293 289 282 275 272 275 280 281
237 238 238 246 258 259 256 262 267 265 266 272 273 273 278 284 287 288 287 294 298 283 269 274 281 287 275 237 227 253 265 267 268 265 260 258 256 252 248 247 246 245 246 249 252 255 255 256 257 257 257 258 260 260 258 256 259 266 274 281 287 293 295 295 294 296 298 300 303 304 300 299 300 300 300 300 298 295 292 289 282 273 269 273 277
244 248 252 259 264 263 259 261 264 266 273 279 280 279 281 283 283 282 285 290 287 269 271 284 282 272 257 238 245 269 269 263 263 264 261 258 253 249 245 243 242 243 245 248 250 252 254 255 256 256 256 257 257 257 259 260 263 267 271 277 282 284 286 287 288 290 293 295 296 296 295 296 296 295 294 295 296 295 293 292 290 284 277 274 275
258 260 263 266 269 269 268 267 267 270 274 275 276 277 277 277 275 276 279 278 270 268 279 286 273 255 251 254 263 273 270 264 265 265 259 250 246 244 239 237 239 241 242 243 246 248 250 252 253 255 256 259 261 263 265 268 270 272 276 280 282 282 282 283 283 283 284 286 289 290 291 292 291 289 289 290 290 291 292 291 289 289 286 283 280
265 265 267 269 270 270 271 270 269 271 272 272 274 274 273 271 270 271 273 271 268 272 277 274 265 263 266 266 268 272 269 262 260 260 257 252 248 244 238 234 235 237 238 240 242 243 245 247 248 251 254 258 261 264 268 271 273 276 280 283 284 283 281 281 282 280 280 282 285 286 287 285 282 281 282 284 284 285 287 288 288 288 287 285 283
264 262 264 264 264 264 263 264 264 266 267 269 270 271 272 272 270 268 268 268 268 271 272 270 271 275 277 276 274 275 271 265 261 261 260 253 243 239 238 236 235 236 237 240 242 243 244 244 246 250 254 257 261 264 269 272 274 276 280 282 284 284 283 283 282 282 284 286 286 286 287 286 283 282 282 283 282 281 280 283 285 285 285 284 284
259 258 256 256 257 256 255 256 257 260 263 264 265 266 266 266 266 266 267 266 266 266 267 270 273 275 277 278 278 278 275 272 269 266 260 250 245 246 246 245 246 246 245 245 246 246 247 247 249 252 255 258 261 264 268 271 273 276 277 279 281 283 283 284 284 284 286 288 286 284 284 285 285 284 284 284 283 282 280 279 280 281 282 281 282
248 250 250 251 251 251 251 251 253 257 260 261 262 262 262 263 266 268 268 267 266 266 268 270 270 270 269 268 268 268 268 268 267 266 263 260 262 265 262 257 256 256 253 251 250 250 250 250 251 253 255 258 260 263 266 270 272 274 276 277 279 280 282 284 285 284 285 285 284 282 283 284 284 283 284 284 284 284 281 279 279 280 280 279 278
242 241 244 246 248 250 253 254 255 258 260 261 262 263 264 266 270 272 271 270 269 268 268 267 266 266 267 266 266 265 266 266 266 265 264 264 265 265 263 260 259 259 257 255 254 253 252 252 252 254 255 258 261 264 267 271 274 276 277 278 279 280 282 283 284 284 284 283 282 283 284 284 282 280 281 283 284 283 281 281 283 284 284 280 277
246 243 243 244 246 248 251 254 256 259 261 262 263 264 265 268 270 270 270 269 268 267 267 267 268 269 270 271 271 272 273 273 272 271 270 268 267 265 263 261 260 260 260 260 258 256 255 255 255 256 257 259 261 264 267 270 273 276 278 281 282 283 283 283 283 282 282 281 281 281 282 281 280 279 280 281 281 280 280 282 285 286 286 282 276
246 245 245 246 247 247 248 249 251 254 258 260 261 261 263 265 266 266 267 267 266 266 267 268 269 270 270 271 272 272 273 274 273 272 270 269 269 267 266 265 263 262 262 262 260 257 256 257 257 257 258 259 260 261 263 265 268 272 277 280 282 282 283 282 282 281 281 280 279 279 279 279 279 280 279 278 277 277 278 282 284 284 285 283 278
244 245 245 247 248 249 249 249 250 252 254 258 261 261 260 259 259 259 261 261 262 263 266 267 268 269 270 271 272 272 272 272 271 269 268 268 268 268 268 269 268 267 265 263 261 258 256 256 258 258 257 257 258 259 259 261 266 271 276 279 281 281 281 281 281 281 280 280 280 280 279 278 278 278 277 277 277 276 277 279 279 280 279 277 275
245 245 246 247 248 249 250 250 251 253 254 256 259 261 262 262 260 257 256 256 256 259 261 263 266 268 269 271 272 272 272 271 270 269 268 267 267 267 268 268 269 269 267 263 261 260 258 258 259 258 255 255 258 262 264 266 270 274 278 280 281 280 280 281 281 281 281 282 282 281 281 281 280 278 276 276 277 277 276 275 275 275 274 272 271
250 249 249 249 249 250 251 251 252 254 254 255 257 259 261 265 267 265 264 263 262 262 263 264 265 266 267 268 269 270 270 270 270 270 270 270 269 269 268 267 267 268 267 264 262 262 261 261 262 261 258 257 262 268 271 273 275 276 278 279 279 279 279 280 280 281 282 283 283 283 283 283 282 280 278 277 276 275 274 272 271 271 270 269 270
254 253 252 252 252 252 253 253 254 255 255 256 257 258 259 261 265 267 269 269 268 268 267 267 266 266 265 264 265 266 266 267 267 268 268 268 269 268 267 266 264 264 265 264 264 263 263 263 264 264 262 262 265 271 274 276 276 277 277 277 278 278 278 278 280 281 281 282 283 283 283 282 282 281 278 276 275 273 270 268 268 268 267 269 271
255 256 255 255 255 255 255 255 256 256 257 258 259 261 262 263 264 266 267 268 269 268 268 267 266 266 264 263 262 263 263 264 265 265 265 264 264 263 262 260 259 259 260 262 264 265 265 265 266 267 266 266 269 273 275 275 276 276 277 277 278 277 277 278 278 279 280 281 281 281 282 282 281 278 274 274 275 274 270 268 266 265 266 269 271
257 257 257 257 257 257 258 258 258 259 260 261 262 264 265 266 267 268 268 269 270 270 270 270 270 269 268 267 266 265 264 264 265 267 267 267 267 266 266 264 263 262 263 265 266 267 268 268 269 270 270 271 274 275 276 275 275 276 276 277 277 277 277 277 277 278 279 278 279 281 282 280 275 270 269 270 271 269 267 266 264 263 265 268 269
259 258 258 258 258 258 258 259 260 260 262 263 264 266 267 268 269 270 271 271 271 271 272 272 272 272 272 271 270 269 268 268 268 269 269 270 270 270 271 271 270 269 269 270 271 272 272 272 273 273 274 275 276 277 277 277 277 277 277 277 276 276 275 275 276 276 276 277 279 279 274 268 264 263 263 263 262 262 263 263 261 261 263 265 266
260 259 259 259 259 260 260 260 261 262 262 264 265 266 267 268 269 271 272 272 272 273 273 273 273 273 273 273 273 272 272 272 271 271 271 271 272 272 273 274 274 274 274 274 274 275 275 275 276 276 276 276 277 277 277 277 277 277 277 276 275 275 274 274 275 275 276 276 276 271 264 261 262 262 262 261 260 261 262 261 260 260 262 264 265
262 262 261 262 262 262 263 263 263 264 264 265 266 267 268 269 270 271 272 273 274 275 275 276 276 276 277 277 277 277 277 276 276 275 275 275 275 274 275 275 276 277 277 277 276 276 277 277 277 277 276 276 276 276 276 276 276 276 275 275 275 275 275 274 274 274 275 274 271 267 263 262 261 261 261 260 259 259 260 261 261 260 261 262 263
265 266 266 265 265 265 265 265 265 265 265 266 267 268 269 270 271 272 273 274 275 276 277 278 279 279 280 280 280 280 280 279 279 278 278 277 277 276 276 276 276 276 277 277 277 277 277 277 277 276 276 276 275 275 275 275 275 275 274 274 274 274 275 274 272 272 272 272 269 265 260 258 258 258 258 257 257 258 260 260 261 260 260 261 262
265 266 266 267 267 267 267 266 266 266 266 266 267 269 270 270 271 271 272 273 274 275 277 278 279 280 280 280 280 280 280 280 279 279 278 278 277 277 277 276 276 276 276 276 276 276 276 276 276 276 276 276 276 276 276 275 275 275 273 273 272 272 272 272 270 268 268 268 268 263 254 253 256 255 253 253 255 256 257 259 262 264 264 264 264
263 264 264 264 264 264 264 264 265 265 266 266 267 269 270 270 270 271 272 274 275 277 278 279 279 279 279 280 279 279 279 279 279 279 278 278 277 277 277 276 276 276 275 275 275 274 274 274 274 274 275 274 274 274 274 272 271 270 270 270 270 269 268 268 268 268 266 265 265 259 250 249 251 250 249 253 257 259 261 266 268 268 267 267 267
258 258 259 260 260 260 261 262 262 263 264 265 266 268 268 269 270 271 273 275 276 277 278 278 278 278 278 278 278 278 278 278 278 278 278 278 278 278 277 277 276 276 276 275 275 274 274 273 273 272 272 272 271 271 269 268 266 265 266 266 266 266 265 263 263 264 262 258 256 253 250 247 246 247 250 256 262 266 268 271 271 268 267 267 267
258 258 259 260 262 263 264 265 267 268 268 269 270 271 271 272 273 274 275 275 276 276 277 277 277 277 277 277 277 277 277 278 278 278 277 277 278 278 278 277 276 276 276 275 275 274 272 271 271 270 269 269 268 267 266 264 264 263 263 263 263 263 262 260 256 254 255 253 249 248 249 248 247 250 256 261 265 268 269 270 269 267 265 264 263
Height
5786 5786 5786 5785 5784 5785 5785 5784 5783 5782 5780 5777 5777 5780 5782 5784 5785 5786 5787 5788 5789 5791 5792 5792 5793 5794 5795 5795 5796 5797 5797 5797 5798 5798 5798 5799 5800 5800 5800 5801 5801 5801 5801 5802 5802 5802 5802 5802 5802 5802 5801 5800 5800 5799 5799 5799 5799 5799 5800 5800 5801 5801 5802 5803 5803 5804 5804 5804 5804 5806 5807 5806 5805 5804 5805 5806 5807 5808 5807 5808 5809 5810 5810 5810 5810
5783 5783 5783 5782 5781 5781 5780 5778 5776 5777 5777 5776 5778 5780 5782 5783 5784 5786 5787 5788 5789 5790 5791 5791 5792 5794 5795 5795 5796 5796 5796 5797 5797 5797 5797 5798 5799 5799 5799 5799 5799 5800 5800 5800 5800 5800 5800 5800 5800 5800 5800 5800 5799 5799 5798 5798 5798 5798 5799 5799 5800 5800 5801 5802 5803 5803 5803 5804 5804 5804 5805 5806 5805 5804 5804 5805 5805 5806 5806 5806 5807 5808 5808 5809 5809
5781 5781 5781 5778 5775 5773 5774 5773 5773 5774 5776 5776 5777 5779 5781 5782 5784 5785 5787 5788 5790 5790 5790 5790 5791 5792 5793 5794 5794 5795 5795 5795 5796 5797 5798 5799 5799 5799 5799 5799 5799 5799 5799 5799 5799 5798 5798 5798 5798 5799 5799 5799 5798 5798 5798 5798 5798 5798 5798 5798 5799 5800 5800 5802 5802 5802 5802 5803 5804 5804 5804 5804 5803 5803 5803 5804 5804 5805 5804 5805 5806 5806 5807 5808 5808
5779 5779 5776 5771 5769 5770 5772 5773 5774 5775 5775 5775 5776 5778 5780 5781 5782 5783 5785 5786 5788 5788 5789 5789 5790 5791 5791 5792 5793 5793 5794 5794 5795 5797 5799 5799 5798 5798 5798 5798 5798 5797 5797 5797 5797 5796 5796 5796 5797 5797 5797 5797 5797 5797 5797 5797 5797 5797 5797 5797 5798 5798 5799 5801 5802 5802 5802 5802 5802 5802 5802 5802 5802 5802 5802 5803 5803 5803 5803 5804 5804 5805 5806 5807 5807
5777 5775 5770 5767 5768 5773 5773 5773 5775 5775 5774 5775 5775 5776 5778 5779 5780 5780 5781 5782 5784 5785 5787 5787 5788 5789 5790 5791 5792 5792 5793 5794 5795 5797 5798 5798 5797 5797 5796 5796 5796 5796 5795 5795 5795 5795 5795 5795 5795 5795 5796 5796 5797 5797 5797 5797 5797 5797 5797 5797 5797 5797 5798 5799 5800 5801 5800 5800 5801 5801 5801 5801 5801 5801 5801 5801 5802 5802 5802 5803 5804 5804 5805 5806 5806
5773 5770 5767 5766 5769 5773 5772 5771 5772 5772 5773 5773 5772 5773 5775 5776 5777 5777 5778 5778 5780 5782 5784 5785 5787 5788 5789 5790 5791 5792 5793 5793 5795 5795 5796 5795 5795 5795 5794 5794 5795 5794 5794 5794 5794 5793 5793 5793 5794 5794 5795 5795 5796 5796 5796 5797 5797 5796 5796 5796 5796 5796 5797 5798 5799 5799 5799 5800 5800 5801 5801 5800 5800 5800 5800 5800 5801 5801 5801 5802 5803 5803 5803 5804 5805
5767 5766 5764 5764 5769 5770 5769 5769 5769 5768 5769 5770 5769 5770 5773 5774 5775 5776 5776 5777 5778 5780 5782 5783 5785 5786 5787 5788 5789 5790 5791 5792 5793 5793 5793 5793 5793 5793 5793 5793 5793 5793 5793 5793 5793 5792 5792 5792 5792 5793 5794 5794 5795 5795 5795 5795 5795 5795 5795 5795 5795 5795 5795 5796 5797 5798 5798 5799 5799 5800 5800 5799 5799 5799 5799 5799 5799 5800 5800 5800 5801 5802 5802 5802 5803
5764 5764 5762 5763 5767 5768 5767 5766 5766 5766 5767 5768 5768 5769 5771 5773 5774 5775 5775 5777 5778 5779 5780 5782 5783 5784 5785 5786 5787 5787 5788 5790 5791 5791 5791 5792 5792 5792 5792 5791 5791 5792 5792 5791 5791 5790 5790 5790 5791 5792 5793 5793 5794 5794 5794 5794 5794 5794 5794 5793 5793 5794 5794 5794 5795 5796 5796 5797 5797 5798 5798 5798 5797 5797 5798 5798 5798 5798 5799 5799 5799 5800 5800 5800 5801
5762 5761 5761 5763 5765 5765 5765 5763 5762 5765 5767 5767 5768 5769 5770 5771 5773 5773 5775 5776 5777 5778 5779 5780 5782 5783 5784 5785 5786 5787 5787 5788 5789 5789 5789 5790 5790 5791 5791 5791 5791 5790 5790 5789 5789 5789 5789 5790 5790 5790 5791 5792 5792 5792 5792 5792 5792 5792 5792 5791 5791 5792 5792 5793 5793 5793 5794 5795 5795 5795 5796 5795 5796 5796 5797 5797 5797 5797 5798 5798 5798 5798 5798 5799 5800
5760 5760 5760 5762 5762 5762 5762 5761 5761 5765 5767 5766 5767 5768 5769 5769 5770 5772 5773 5774 5776 5777 5778 5779 5781 5781 5782 5783 5785 5785 5786 5787 5787 5788 5788 5788 5789 5790 5790 5790 5789 5789 5788 5788 5788 5788 5788 5788 5788 5788 5788 5789 5789 5790 5790 5790 5790 5790 5790 5790 5789 5789 5790 5791 5791 5791 5792 5792 5793 5793 5793 5793 5794 5794 5795 5795 5796 5796 5797 5797 5797 5797 5797 5798 5798
5758 5758 5758 5759 5759 5759 5759 5759 5761 5764 5766 5766 5766 5766 5766 5767 5769 5770 5771 5773 5774 5775 5777 5778 5779 5779 5779 5780 5782 5783 5784 5785 5786 5786 5787 5787 5788 5788 5789 5789 5789 5788 5787 5787 5787 5787 5786 5786 5786 5786 5786 5786 5787 5787 5787 5788 5787 5787 5787 5787 5788 5788 5788 5789 5789 5789 5790 5790 5790 5790 5790 5791 5792 5792 5792 5793 5794 5795 5795 5795 5795 5795 5796 5796 5796
5755 5756 5756 5757 5757 5757 5757 5758 5761 5763 5764 5765 5765 5765 5765 5766 5768 5769 5770 5771 5772 5773 5774 5775 5776 5777 5777 5778 5780 5781 5782 5783 5784 5785 5785 5785 5786 5787 5787 5787 5788 5787 5786 5786 5786 5785 5785 5784 5784 5784 5784 5784 5784 5784 5785 5785 5785 5785 5785 5785 5786 5786 5786 5787 5787 5787 5787 5787 5788 5788 5788 5789 5789 5790 5790 5791 5792 5792 5793 5793 5793 5793 5794 5794 5794
5752 5752 5753 5754 5755 5756 5756 5758 5760 5762 5762 5763 5764 5764 5764 5765 5767 5768 5768 5769 5770 5771 5772 5773 5774 5775 5776 5777 5778 5779 5781 5781 5782 5782 5782 5783 5783 5784 5785 5785 5785 5785 5785 5784 5784 5784 5783 5782 5782 5782 5782 5782 5782 5782 5782 5782 5783 5783 5783 5783 5784 5784 5784 5785 5785 5785 5785 5785 5786 5786 5786 5787 5788 5788 5789 5789 5789 5790 5790 5790 5791 5791 5791 5791 5791
5750 5749 5751 5752 5752 5754 5755 5756 5757 5758 5759 5760 5762 5763 5764 5765 5765 5766 5766 5767 5768 5770 5771 5772 5773 5774 5775 5776 5777 5778 5779 5779 5779 5779 5779 5780 5780 5781 5782 5782 5783 5783 5783 5783 5782 5782 5781 5780 5780 5780 5780 5780 5779 5779 5779 5779 5780 5780 5781 5781 5782 5782 5783 5783 5784 5784 5784 5784 5784 5784 5784 5785 5785 5786 5786 5787 5787 5788 5788 5788 5788 5789 5789 5789 5789
5748 5748 5748 5749 5750 5751 5751 5752 5753 5755 5756 5758 5760 5761 5762 5763 5764 5765 5765 5766 5767 5769 5770 5771 5772 5772 5773 5774 5774 5775 5776 5777 5776 5776 5776 5777 5778 5779 5779 5780 5781 5781 5781 5781 5780 5780 5779 5778 5778 5778 5778 5778 5777 5777 5777 5777 5777 5777 5778 5778 5779 5780 5781 5782 5782 5782 5782 5782 5782 5782 5782 5782 5782 5783 5784 5784 5785 5785 5785 5786 5787 5787 5787 5787 5787
5746 5746 5746 5745 5746 5748 5748 5749 5751 5753 5754 5756 5758 5759 5760 5762 5763 5764 5766 5767 5767 5768 5769 5769 5770 5770 5771 5772 5772 5773 5774 5774 5774 5774 5775 5775 5776 5776 5777 5778 5779 5779 5779 5779 5779 5778 5777 5776 5776 5776 5776 5776 5775 5775 5775 5775 5775 5775 5775 5776 5777 5778 5779 5780 5780 5781 5780 5780 5780 5780 5780 5780 5780 5780 5781 5782 5782 5783 5783 5784 5784 5785 5785 5784 5784
5744 5744 5743 5742 5743 5745 5747 5749 5751 5752 5753 5754 5755 5757 5758 5759 5761 5764 5766 5766 5766 5767 5767 5767 5768 5768 5769 5770 5771 5771 5772 5772 5772 5773 5773 5773 5774 5774 5775 5776 5776 5777 5778 5778 5777 5776 5775 5774 5774 5774 5774 5773 5773 5773 5773 5773 5773 5773 5773 5774 5775 5776 5777 5778 5778 5778 5778 5778 5778 5778 5778 5778 5778 5778 5779 5780 5780 5781 5781 5781 5782 5782 5782 5782 5782
5742 5741 5740 5740 5742 5745 5747 5748 5749 5751 5752 5753 5754 5755 5756 5757 5759 5762 5763 5764 5764 5765 5765 5765 5766 5766 5767 5768 5769 5770 5770 5770 5771 5771 5772 5772 5772 5772 5773 5774 5774 5775 5776 5776 5775 5774 5774 5773 5772 5772 5772 5771 5771 5770 5770 5770 5771 5771 5771 5772 5773 5773 5774 5775 5776 5776 5777 5777 5776 5776 5776 5777 5777 5777 5777 5778 5778 5778 5779 5779 5780 5780 5780 5780 5780
5740 5740 5740 5741 5743 5745 5746 5746 5747 5749 5751 5752 5753 5753 5754 5755 5756 5758 5760 5761 5762 5762 5763 5763 5764 5764 5765 5766 5767 5768 5768 5768 5769 5770 5770 5770 5770 5770 5771 5772 5772 5773 5774 5774 5774 5773 5772 5771 5771 5770 5770 5769 5769 5769 5768 5769 5769 5769 5769 5770 5771 5771 5772 5773 5773 5774 5775 5775 5775 5775 5775 5775 5775 5775 5775 5776 5776 5776 5777 5777 5778 5778 5778 5778 5778
5740 5741 5742 5741 5742 5743 5743 5744 5745 5747 5749 5751 5751 5751 5752 5753 5753 5755 5757 5758 5758 5759 5760 5761 5762 5763 5764 5765 5766 5766 5766 5767 5767 5767 5767 5768 5768 5768 5769 5769 5770 5771 5772 5772 5772 5771 5770 5770 5769 5769 5768 5768 5767 5767 5767 5767 5767 5767 5768 5768 5768 5769 5770 5771 5771 5772 5772 5773 5773 5773 5773 5773 5773 5773 5773 5773 5774 5774 5775 5775 5775 5775 5775 5775 5776
5738 5739 5739 5737 5737 5739 5740 5741 5743 5745 5747 5749 5749 5750 5751 5751 5751 5752 5754 5756 5756 5758 5759 5760 5761 5761 5762 5763 5764 5764 5764 5764 5765 5765 5765 5765 5765 5766 5766 5767 5768 5768 5769 5770 5769 5769 5769 5768 5768 5767 5766 5766 5766 5766 5766 5766 5766 5766 5766 5766 5766 5767 5767 5768 5769 5769 5769 5770 5770 5770 5770 5770 5771 5771 5771 5771 5772 5772 5772 5772 5772 5772 5772 5773 5773
5733 5734 5734 5733 5735 5737 5738 5737 5739 5742 5744 5746 5747 5748 5748 5749 5750 5750 5752 5754 5755 5756 5757 5758 5758 5758 5759 5760 5760 5761 5761 5762 5762 5763 5763 5763 5763 5763 5764 5765 5765 5766 5767 5767 5767 5767 5767 5766 5766 5765 5765 5765 5764 5764 5764 5764 5765 5765 5765 5765 5765 5765 5765 5766 5766 5766 5767 5767 5767 5767 5767 5768 5768 5768 5769 5769 5769 5769 5769 5770 5771 5771 5771 5771 5771
5728 5730 5730 5731 5733 5735 5735 5735 5736 5738 5740 5742 5743 5744 5744 5745 5747 5747 5749 5751 5752 5752 5753 5754 5755 5755 5755 5756 5756 5757 5757 5757 5758 5759 5760 5760 5760 5761 5761 5762 5763 5763 5764 5765 5765 5765 5764 5764 5764 5764 5763 5763 5763 5763 5763 5763 5763 5763 5763 5764 5763 5763 5764 5764 5764 5764 5764 5765 5765 5765 5765 5765 5766 5766 5767 5767 5767 5767 5767 5768 5768 5769 5769 5769 5768
5726 5727 5728 5730 5731 5732 5733 5733 5734 5735 5736 5737 5739 5739 5739 5741 5743 5745 5746 5747 5748 5748 5749 5750 5750 5751 5752 5752 5753 5753 5753 5753 5753 5754 5756 5757 5758 5758 5758 5759 5760 5761 5762 5762 5763 5763 5762 5762 5762 5762 5762 5762 5762 5762 5762 5762 5762 5762 5762 5762 5762 5763 5762 5762 5762 5762 5762 5762 5762 5762 5762 5763 5764 5764 5765 5765 5765 5765 5765 5765 5766 5767 5767 5767 5767
5724 5725 5727 5729 5730 5731 5731 5732 5732 5733 5733 5734 5735 5735 5735 5738 5740 5742 5744 5744 5745 5746 5747 5747 5747 5747 5748 5749 5749 5749 5749 5749 5750 5750 5752 5753 5754 5755 5755 5756 5757 5758 5758 5759 5760 5760 5760 5760 5761 5761 5761 5761 5761 5761 5761 5761 5761 5761 5761 5761 5762 5762 5761 5761 5761 5761 5761 5760 5760 5760 5760 5761 5761 5762 5762 5762 5762 5763 5763 5762 5763 5763 5764 5765 5765
5721 5723 5725 5726 5727 5728 5730 5731 5731 5731 5730 5730 5732 5732 5733 5735 5737 5739 5740 5740 5741 5742 5742 5743 5744 5745 5745 5744 5745 5745 5745 5745 5747 5748 5749 5750 5751 5752 5752 5753 5754 5755 5756 5756 5757 5757 5758 5759 5759 5759 5760 5760 5759 5759 5759 5760 5760 5760 5760 5760 5760 5760 5760 5759 5759 5759 5759 5759 5758 5758 5758 5758 5758 5758 5759 5759 5760 5760 5761 5761 5761 5760 5760 5761 5762
5719 5720 5722 5723 5724 5726 5727 5728 5729 5729 5727 5727 5729 5729 5729 5731 5734 5734 5735 5737 5738 5738 5738 5738 5739 5741 5741 5742 5743 5743 5743 5744 5746 5746 5747 5747 5748 5749 5750 5751 5752 5753 5753 5754 5755 5755 5756 5757 5757 5757 5758 5758 5758 5758 5758 5758 5758 5758 5758 5758 5758 5758 5757 5758 5758 5758 5758 5757 5757 5757 5756 5756 5756 5756 5756 5756 5757 5757 5758 5759 5759 5758 5758 5757 5757
5718 5719 5721 5722 5722 5723 5723 5723 5724 5725 5724 5724 5726 5727 5727 5729 5731 5731 5732 5734 5735 5735 5736 5736 5737 5738 5739 5740 5741 5741 5742 5744 5745 5744 5745 5745 5746 5747 5748 5749 5750 5751 5751 5752 5753 5753 5754 5754 5755 5755 5755 5755 5755 5755 5755 5756 5756 5756 5756 5755 5755 5755 5756 5756 5756 5756 5756 5755 5755 5754 5754 5754 5754 5754 5753 5753 5754 5754 5755 5755 5756 5756 5756 5755 5755
5715 5716 5717 5718 5719 5720 5720 5721 5721 5722 5722 5722 5723 5725 5726 5727 5728 5729 5729 5731 5733 5732 5733 5734 5734 5735 5737 5738 5738 5739 5741 5742 5743 5742 5742 5743 5743 5744 5746 5747 5747 5748 5749 5749 5750 5751 5751 5752 5753 5753 5753 5753 5753 5753 5753 5753 5754 5754 5753 5753 5753 5753 5754 5754 5754 5754 5753 5753 5753 5752 5752 5751 5752 5751 5751 5751 5751 5751 5751 5751 5752 5753 5752 5752 5752
5712 5713 5714 5715 5716 5716 5717 5718 5719 5718 5718 5719 5720 5722 5724 5725 5726 5727 5727 5730 5732 5730 5730 5731 5732 5733 5735 5736 5736 5737 5738 5740 5740 5739 5740 5741 5742 5743 5743 5744 5744 5745 5746 5746 5747 5748 5748 5749 5750 5750 5751 5750 5750 5751 5751 5751 5752 5752 5752 5751 5751 5751 5751 5751 5751 5751 5751 5751 5751 5750 5750 5749 5749 5748 5748 5748 5748 5748 5747 5747 5748 5748 5748 5748 5748
5709 5710 5711 5713 5713 5714 5714 5715 5715 5715 5715 5716 5717 5718 5721 5723 5724 5725 5726 5727 5729 5729 5730 5731 5732 5732 5733 5735 5734 5734 5735 5737 5737 5737 5738 5739 5739 5741 5741 5741 5741 5742 5742 5743 5743 5744 5745 5745 5746 5747 5747 5747 5747 5747 5748 5748 5749 5749 5749 5748 5748 5747 5747 5747 5747 5747 5747 5748 5748 5748 5748 5747 5746 5746 5745 5745 5745 5745 5745 5744 5744 5744 5744 5744 5744
5706 5707 5708 5710 5710 5711 5711 5712 5712 5712 5713 5713 5714 5715 5717 5719 5720 5722 5724 5725 5727 5727 5729 5730 5730 5730 5731 5732 5732 5732 5732 5733 5734 5735 5735 5736 5737 5738 5738 5738 5739 5739 5739 5739 5739 5740 5741 5742 5742 5743 5743 5744 5744 5744 5744 5744 5745 5745 5745 5745 5744 5744 5743 5743 5743 5744 5744 5744 5744 5744 5744 5743 5743 5743 5742 5742 5742 5742 5742 5741 5741 5741 5741 5740 5739
5702 5703 5704 5706 5706 5707 5708 5709 5709 5709 5710 5710 5711 5712 5713 5714 5715 5717 5720 5722 5723 5724 5725 5726 5726 5727 5728 5728 5729 5729 5730 5730 5731 5731 5731 5732 5734 5735 5735 5735 5735 5735 5736 5736 5735 5736 5736 5737 5738 5738 5739 5739 5740 5740 5740 5740 5740 5741 5741 5741 5741 5740 5740 5740 5741 5741 5740 5739 5740 5740 5740 5739 5739 5739 5739 5738 5738 5738 5738 5738 5738 5738 5738 5737 5736
5698 5699 5700 5701 5702 5702 5703 5704 5705 5706 5707 5707 5707 5708 5709 5710 5711 5713 5715 5716 5718 5719 5720 5721 5721 5722 5723 5723 5724 5724 5725 5725 5726 5727 5728 5729 5730 5731 5731 5731 5731 5731 5731 5731 5731 5731 5731 5732 5733 5734 5734 5735 5735 5735 5735 5736 5736 5736 5737 5737 5737 5736 5736 5737 5737 5736 5735 5735 5735 5735 5735 5735 5735 5735 5734 5734 5734 5734 5734 5733 5733 5733 5733 5733 5732
5695 5695 5695 5697 5698 5698 5699 5701 5702 5703 5703 5703 5703 5704 5705 5706 5708 5709 5710 5711 5712 5714 5714 5715 5715 5716 5717 5718 5718 5719 5719 5720 5720 5722 5723 5724 5724 5725 5725 5726 5726 5727 5727 5727 5727 5726 5726 5727 5728 5728 5728 5729 5729 5729 5730 5730 5731 5732 5732 5733 5733 5732 5732 5733 5732 5731 5731 5730 5730 5730 5730 5729 5730 5730 5729 5728 5729 5729 5728 5728 5727 5727 5728 5727 5726
5692 5692 5693 5694 5695 5695 5696 5698 5700 5700 5700 5700 5700 5700 5701 5703 5704 5705 5706 5706 5707 5708 5708 5709 5710 5711 5712 5712 5713 5714 5715 5715 5716 5716 5717 5718 5718 5718 5719 5720 5720 5721 5721 5722 5722 5721 5721 5721 5722 5722 5722 5723 5723 5724 5724 5725 5726 5726 5727 5728 5727 5727 5727 5727 5727 5726 5726 5725 5725 5725 5725 5724 5723 5724 5724 5723 5723 5723 5722 5722 5722 5721 5721 5721 5720
5688 5689 5690 5691 5691 5692 5693 5695 5696 5696 5696 5696 5696 5696 5696 5698 5700 5701 5701 5701 5701 5702 5703 5704 5704 5706 5707 5708 5708 5709 5710 5711 5711 5712 5712 5712 5712 5713 5713 5714 5714 5715 5715 5715 5715 5715 5715 5716 5716 5716 5716 5717 5717 5718 5719 5720 5720 5721 5722 5722 5721 5721 5720 5721 5722 5721 5721 5720 5720 5720 5719 5719 5718 5717 5717 5717 5718 5717 5716 5716 5716 5715 5715 5714 5713
5684 5685 5686 5687 5687 5688 5689 5690 5691 5691 5692 5692 5692 5692 5692 5692 5694 5696 5696 5696 5695 5697 5698 5699 5699 5700 5701 5702 5703 5704 5705 5705 5706 5706 5706 5706 5707 5707 5707 5708 5708 5708 5709 5709 5709 5710 5710 5710 5710 5710 5711 5711 5711 5711 5712 5713 5714 5714 5715 5715 5715 5714 5714 5714 5714 5715 5715 5715 5714 5713 5713 5712 5712 5711 5710 5710 5711 5711 5710 5710 5710 5710 5709 5707 5706
5679 5680 5681 5682 5683 5683 5684 5685 5686 5686 5687 5688 5688 5688 5688 5688 5689 5691 5691 5691 5691 5692 5693 5694 5694 5695 5696 5697 5697 5698 5698 5699 5699 5700 5700 5700 5700 5700 5700 5701 5701 5702 5702 5702 5702 5703 5703 5704 5704 5704 5705 5705 5704 5704 5704 5705 5706 5707 5708 5709 5708 5708 5708 5707 5707 5707 5707 5708 5707 5707 5706 5705 5705 5704 5702 5703 5704 5704 5704 5704 5704 5704 5703 5701 5700
5675 5675 5676 5676 5677 5678 5678 5679 5680 5681 5682 5683 5683 5683 5684 5684 5685 5685 5686 5686 5687 5688 5689 5689 5689 5690 5690 5691 5691 5692 5693 5693 5693 5693 5693 5694 5694 5693 5693 5694 5694 5694 5694 5695 5695 5696 5696 5696 5697 5697 5698 5698 5698 5698 5697 5697 5698 5699 5700 5701 5702 5702 5702 5701 5700 5700 5700 5699 5699 5698 5699 5698 5697 5696 5695 5695 5696 5696 5696 5697 5697 5698 5696 5694 5694
5670 5670 5670 5671 5672 5672 5673 5674 5675 5676 5676 5677 5678 5678 5679 5679 5680 5680 5680 5681 5682 5683 5684 5684 5685 5685 5685 5686 5686 5687 5687 5688 5688 5688 5688 5688 5687 5687 5687 5687 5687 5687 5687 5687 5688 5688 5688 5688 5688 5688 5689 5690 5690 5691 5690 5690 5690 5691 5692 5692 5694 5695 5695 5694 5694 5693 5692 5692 5691 5690 5690 5690 5689 5688 5688 5687 5687 5688 5688 5689 5690 5691 5689 5688 5688
5664 5665 5666 5666 5666 5667 5668 5668 5669 5670 5671 5671 5672 5672 5673 5673 5674 5674 5675 5676 5677 5678 5679 5680 5680 5680 5680 5680 5681 5681 5681 5682 5682 5682 5682 5682 5681 5681 5681 5680 5680 5680 5680 5680 5680 5680 5680 5680 5680 5679 5680 5680 5681 5682 5683 5683 5682 5683 5683 5684 5685 5686 5686 5686 5686 5685 5685 5685 5684 5682 5682 5681 5681 5681 5680 5679 5680 5680 5681 5681 5682 5683 5681 5681 5682
5659 5660 5661 5661 5661 5662 5663 5663 5663 5664 5665 5665 5666 5666 5666 5667 5667 5668 5669 5670 5671 5672 5673 5673 5673 5674 5674 5674 5674 5674 5674 5675 5675 5675 5675 5675 5674 5674 5673 5673 5672 5673 5673 5673 5673 5672 5671 5671 5671 5671 5671 5672 5672 5673 5674 5675 5675 5675 5675 5675 5676 5677 5677 5677 5678 5678 5677 5677 5676 5675 5675 5674 5673 5673 5673 5673 5673 5673 5673 5674 5675 5675 5675 5675 5675
5654 5654 5655 5656 5657 5657 5658 5657 5658 5658 5659 5659 5659 5659 5660 5660 5661 5661 5662 5663 5664 5665 5665 5665 5665 5665 5665 5666 5666 5666 5666 5666 5667 5667 5666 5666 5666 5666 5665 5665 5664 5664 5664 5664 5664 5662 5661 5661 5661 5661 5662 5663 5664 5663 5664 5665 5666 5666 5666 5666 5667 5667 5668 5669 5670 5669 5669 5668 5668 5668 5668 5665 5665 5666 5666 5666 5667 5666 5666 5667 5668 5668 5668 5668 5669
5648 5649 5650 5651 5651 5652 5652 5652 5652 5652 5653 5653 5653 5653 5653 5654 5655 5655 5655 5656 5657 5657 5657 5657 5657 5657 5657 5658 5658 5658 5658 5658 5658 5657 5657 5657 5656 5656 5656 5655 5654 5654 5654 5654 5653 5652 5650 5650 5651 5651 5651 5653 5654 5655 5654 5654 5656 5656 5656 5656 5657 5658 5659 5660 5661 5660 5659 5660 5660 5660 5659 5657 5657 5658 5658 5658 5658 5658 5658 5659 5660 5661 5662 5662 5662
5642 5643 5644 5645 5645 5646 5646 5645 5645 5646 5647 5647 5647 5646 5647 5648 5649 5649 5648 5649 5649 5649 5649 5649 5649 5649 5649 5649 5649 5649 5649 5648 5648 5647 5647 5647 5646 5646 5646 5645 5644 5643 5642 5642 5641 5641 5640 5639 5640 5640 5640 5642 5644 5645 5645 5645 5645 5646 5646 5646 5647 5648 5649 5651 5652 5651 5650 5651 5651 5650 5650 5649 5649 5649 5649 5650 5649 5650 5651 5652 5653 5654 5655 5655 5656
5635 5636 5638 5639 5639 5640 5640 5638 5638 5640 5641 5640 5640 5640 5641 5642 5642 5642 5642 5642 5642 5642 5641 5641 5641 5641 5640 5640 5640 5640 5639 5639 5638 5638 5637 5637 5636 5636 5636 5635 5634 5633 5632 5632 5631 5630 5630 5629 5629 5629 5629 5631 5633 5634 5635 5635 5634 5634 5635 5636 5637 5638 5639 5641 5642 5642 5642 5642 5641 5641 5641 5640 5640 5641 5641 5641 5641 5642 5643 5644 5646 5647 5647 5648 5648
5629 5630 5631 5632 5633 5633 5632 5631 5631 5633 5634 5633 5633 5634 5634 5635 5635 5635 5635 5635 5635 5635 5634 5634 5633 5633 5632 5631 5631 5630 5629 5629 5628 5627 5627 5626 5626 5625 5625 5625 5624 5623 5622 5621 5621 5620 5619 5618 5618 5618 5618 5619 5621 5623 5624 5625 5624 5622 5623 5625 5628 5629 5630 5631 5631 5633 5635 5634 5632 5633 5633 5632 5632 5633 5633 5633 5634 5635 5636 5638 5639 5640 5640 5641 5641
5624 5624 5625 5627 5626 5625 5625 5625 5626 5627 5627 5626 5627 5627 5627 5628 5628 5628 5628 5627 5627 5627 5627 5626 5625 5624 5623 5622 5621 5620 5619 5619 5618 5617 5616 5615 5614 5614 5614 5614 5613 5612 5611 5610 5609 5609 5609 5607 5607 5608 5607 5608 5610 5612 5613 5614 5614 5612 5612 5615 5618 5619 5620 5621 5622 5624 5627 5627 5625 5625 5625 5624 5624 5625 5626 5626 5627 5628 5629 5631 5632 5633 5634 5634 5635
5617 5618 5619 5620 5619 5618 5618 5619 5620 5620 5620 5620 5620 5621 5620 5620 5620 5620 5620 5620 5620 5620 5619 5618 5617 5616 5615 5614 5612 5611 5610 5609 5609 5608 5607 5605 5603 5602 5602 5602 5602 5600 5598 5597 5597 5598 5597 5596 5596 5597 5596 5597 5600 5601 5601 5601 5601 5601 5603 5606 5609 5610 5610 5612 5613 5616 5618 5619 5618 5618 5617 5616 5616 5617 5618 5619 5621 5622 5623 5623 5625 5626 5627 5628 5629
5610 5611 5612 5612 5611 5611 5611 5612 5612 5612 5613 5613 5613 5613 5612 5612 5613 5612 5612 5612 5612 5611 5610 5609 5608 5607 5606 5604 5603 5602 5601 5600 5599 5598 5597 5596 5594 5592 5590 5590 5590 5590 5588 5586 5585 5586 5586 5585 5585 5586 5586 5586 5588 5590 5589 5588 5589 5590 5593 5596 5599 5601 5602 5603 5606 5610 5613 5613 5611 5610 5609 5609 5610 5611 5612 5613 5615 5616 5616 5617 5618 5619 5620 5621 5622